Weather Roundup
Issued by NWS Chicago, IL

Home | Current Version | Previous Version | Graphics & Text | Print | Product List | Glossary On
Versions: 1 2 3 4 5 6 7 8 9 10 11 12 13 14 15 16 17 18 19 20 21 22 23 24 25 26 27 28 29 30 31 32 33 34 35 36 37 38 39 40 41 42 43 44 45 46 47 48 49 50
000
NZUS59 KLOT 262103
HRRLOT

CHICAGO AREA WEATHER ROUNDUP
NATIONAL WEATHER SERVICE CHICAGO/ROMEOVILLE IL
400 PM CDT TUE JUL 26 2016

NOTE: "FAIR" INDICATES FEW OR NO CLOUDS BELOW 12,000 FEET WITH NO
SIGNIFICANT WEATHER AND/OR OBSTRUCTIONS TO VISIBILITY.

* THESE STATIONS ARE NOT UNDER NWS QUALITY CONTROL. THEY ALSO MAY NOT
  REPORT WEATHER SUCH AS PRECIPITATION OR FOG.

ILZ005-006-012>014-019>023-262200-
NORTHEAST ILLINOIS

CITY           SKY/WX    TMP DP  RH WIND       PRES   REMARKS
OHARE          MOSUNNY   85  64  49 E7        30.01F HX  86
MIDWAY         MOSUNNY   86  63  45 NE12      30.00F HX  87
AURORA         PTSUNNY   85  66  53 W5        30.02F HX  87
LANSING*       MOSUNNY   85  64  49 CALM      30.01F HX  86
WAUKEGAN       SUNNY     83  64  52 E8        30.02F HX  84
DUPAGE AIRPORT MOSUNNY   85  65  51 W5        30.01F HX  86
WHEELING       SUNNY     85  63  47 VRB5      30.03F HX  86
KANKAKEE*      CLOUDY    82  69  65 E5        30.02F HX  86
MORRIS*        MOSUNNY   85  69  57 CALM      30.00F HX  89
NORTHERLY ISL    N/A     80  70  71 NE5         N/A  HX  83
$$

WIZ051-052-058>065-066-070>072-262200-
SOUTHEAST WISCONSIN

CITY           SKY/WX    TMP DP  RH WIND       PRES   REMARKS
MILWAUKEE      MOSUNNY   85  61  44 SE10      30.01F HX  85
KENOSHA*       SUNNY     85  62  46 VRB7      30.02F HX  85
RACINE*        SUNNY     84  61  45 SE9       30.03F HX  84
BURLINGTON     SUNNY     86  60  40 CALM      30.02F HX  85
WAUKESHA       MOSUNNY   84  57  39 NW5       30.03F HX  83
$$

INZ001>003-010>013-019-020-262200-
NORTHWEST INDIANA

CITY           SKY/WX    TMP DP  RH WIND       PRES   REMARKS
GARY*          MOSUNNY   84  70  61 N5        30.02F HX  88
MICHIGAN CITY* NOT AVBL
RENSSELAER*    NOT AVBL
VALPARAISO     SUNNY     85  65  51 N5        30.02F HX  86
$$

LMZ740>746-262200-
SOUTHERN LAKE MICHIGAN

STATION/POSITION TIME  SKY/WX   TEMP WIND        PRES    VSBY
                                AIR  DIR/SP/G
                 (UTC)          (F)  (DEG/KT/KT) (MB)    (MI)
HARRISON CRIB    2000            79   70/  8/  8   N/A
BURNHAM HARBOR   2100            80   50/  4/  6   N/A
CALUMET HARBOR   2000            77   40/  8/  9 1016.3F
BURNS HARBOR     2000            77   30/ 10/ 10 1017.3F
MICHIGAN CITY    2000            78  350/  9/ 10   N/A
$$

ABBREVIATIONS USED IN REMARKS
   TC - TEMPERATURE IN CELSIUS
  WCI - WIND CHILL INDEX
   HX - HEAT INDEX
  VSB - VISIBILITY
$$



USA.gov is the U.S. government's official web portal to all federal, state and local government web resources and services.